User: anonymous   Login
Location: Izdebno
(52.6670°N, 16.2170°E)
Time: 15:45:14
(UTC+02:00)
Language:

ISS - Orbit

View from above orbital plane
View from above orbital plane
View from above satellite
View from above satellite

Ground track
Ground track

The orbit data is extracted from the following two-line orbital elements,

1 25544U 98067A   22268.20462258  .00008995  00000-0  16386-3 0  9997
2 25544  51.6424 201.0629 0002375 289.1736 216.0075 15.50267607360691
Epoch (UTC): 25 September 2022 04:54:39
Eccentricity: 0.0002375
inclination: 51.6424°
perigee height: 414 km
apogee height: 417 km
right ascension of ascending node: 201.0629°
argument of perigee: 289.1736°
revolutions per day: 15.50267607
mean anomaly at epoch: 216.0075°
orbit number at epoch: 36069

The dashed part of the orbit path shows where the satellite is in the earth's shadow,  

DLR